Flag for Germany Weather past 2 weeks in Dülmen, North Rhine-Westphalia, Germany

Now
61 °F

Fog.


Feels Like: 61 °F
Forecast: 44 / 60 °F
Wind: 5 mph from Northwest

Location: Muenster / Osnabrueck

Current Time: Sep 21, 2014 at 5:11:01 AM

Latest Report: Sep 21, 2014 at 4:20 AM


Visibility: 1 mi

Pressure: 29.95 "Hg

Humidity: 100%

Dew point: 61 °F

Location of DülmenLocation

Historic Weather in Dülmen — Graph

°F

Dülmen temperature yesterday

Maximum temperature yesterday: 73 °F (at 3:20 PM)
Minimum temperature yesterday: 57 °F (at 6:20 AM)
Average temperature yesterday: 62 °F

Past Weeks' High & Low Weather Summary

 TemperatureHumidityPressure
High79 °F (Sep 18, 2:20 PM)100% (Sep 6, 3:20 AM)30.24 "Hg (Sep 6, 3:20 AM)
Low46 °F (Sep 9, 6:20 AM)48% (Sep 18, 2:20 PM)29.83 "Hg (Sep 19, 4:20 AM)
Average62 °F84%30.03 "Hg
* Reported Sep 6 3:20 AM — Sep 21 3:50 AM, Dülmen, Weather by CustomWeather, © 2014

Note: Actual official high and low records may vary slightly from our data, if they occured in-between our weather recording intervals... More about our weather records

Advertising

Dülmen weather history for previous 24 hours

 ConditionsComfort  
Time TempWeatherWind HumidityBarometerVisibility
3:50 AM
Sep 21
61 °FFog.5 mph100%29.95 "Hg1 mi
3:20 AM59 °FFog.3 mph100%29.95 "Hg2 mi
2:50 AM59 °FFog.5 mph100%29.95 "Hg2 mi
2:20 AM59 °FCool.5 mph100%29.95 "Hg1 mi
1:50 AM57 °FCool.2 mph100%29.95 "Hg1 mi
1:20 AM59 °FCool.1 mph100%29.95 "Hg1 mi
12:50 AM59 °FCool.3 mph100%29.95 "Hg1 mi
12:20 AM59 °FCool.2 mph100%29.95 "Hg1 mi
11:50 PM
Sep 20
61 °FCool.2 mph100%29.95 "Hg2 mi
11:20 PM61 °FFog.3 mph100%29.95 "Hg4 mi
10:50 PM61 °FPassing clouds.3 mph100%29.95 "HgN/A
10:20 PM61 °FThundershowers. Partly cloudy.1 mph100%29.95 "Hg6 mi
9:50 PM61 °FThundershowers. Partly cloudy.5 mph94%29.95 "Hg6 mi
9:20 PM63 °FThunderstorms. Partly cloudy.7 mph94%29.95 "Hg4 mi
8:50 PM61 °FCool.1 mph100%29.92 "HgN/A
8:20 PM61 °FCool.1 mph100%29.92 "HgN/A
7:50 PM61 °FFog.2 mph100%29.92 "HgN/A
3:20 PM73 °FBroken clouds.6 mph69%29.92 "Hg4 mi
2:50 PM72 °FBroken clouds.3 mph73%29.92 "Hg4 mi
2:20 PM72 °FPartly sunny.5 mph78%29.92 "Hg5 mi
1:50 PM72 °FPartly sunny.6 mph73%29.95 "Hg5 mi
1:20 PM72 °FBroken clouds.6 mph73%29.95 "Hg4 mi
12:20 PM70 °FFog.5 mph83%29.95 "Hg3 mi
11:50 AM68 °FFog.3 mph83%29.95 "Hg2 mi
11:20 AM68 °FFog.2 mph88%29.95 "Hg2 mi
10:50 AM64 °FFog.2 mph94%29.95 "Hg1 mi
10:20 AM63 °FFog.2 mph100%29.95 "Hg1 mi
9:50 AM63 °FFog.2 mph100%29.95 "Hg1 mi
9:20 AM61 °FFog.1 mph100%29.92 "Hg0 mi
8:50 AM61 °FFog.2 mph100%29.92 "Hg0 mi
8:20 AM59 °FFog.1 mph100%29.92 "Hg1 mi
7:50 AM59 °FFog.2 mph100%29.92 "Hg1 mi
7:20 AM57 °FFog.2 mph100%29.92 "Hg0 mi
6:50 AM59 °FFog.2 mph100%29.92 "Hg0 mi
6:20 AM57 °FFog.2 mph100%29.92 "Hg0 mi
5:50 AM59 °FFog.2 mph100%29.89 "Hg1 mi
5:20 AM59 °FFog.2 mph100%29.92 "Hg1 mi
Weather by CustomWeather, © 2014

See weather overviewHow to use our weather pages